Temperature
9 9 10 10 10 10 10 10 10 10 12 13 14 14 14 15 15 15 16 16 16 17 17 17 16 16 16 16 16 16 16 16 16 16 16 16 16 16
9 9 9 9 10 10 10 10 10 10 10 12 13 13 14 14 15 15 15 16 16 16 16 16 16 16 16 16 16 16 16 16 16 16 16 16 16 16
8 9 9 9 9 9 10 10 10 10 10 11 12 13 14 14 14 15 15 15 16 16 16 16 16 16 16 16 16 16 16 16 16 16 16 16 16 16
8 8 8 9 9 9 9 9 10 10 10 10 11 12 13 14 14 15 15 15 16 16 16 16 16 16 16 16 16 16 16 16 16 16 16 16 16 16
8 8 8 8 8 9 9 9 9 10 10 10 11 11 12 13 13 14 14 15 15 15 16 16 16 16 16 16 16 16 16 16 16 16 16 16 16 16
8 8 8 8 8 8 9 9 9 9 9 10 10 11 11 12 13 13 14 14 14 15 15 15 15 15 15 15 15 15 16 16 16 16 16 16 16 16
8 8 8 8 8 8 8 8 9 9 9 9 10 10 11 12 12 13 13 13 13 14 14 14 14 15 15 15 15 15 15 15 15 16 16 16 16 16
8 8 8 8 8 8 8 8 8 8 9 9 10 10 11 11 12 12 12 12 13 13 13 13 13 14 14 14 15 15 15 15 15 15 15 15 15 15
8 8 8 8 8 8 8 8 8 8 8 9 9 10 10 11 11 12 12 12 13 13 13 12 12 12 13 13 14 14 15 15 15 15 15 15 15 15
8 7 7 7 7 7 7 7 8 8 8 8 9 9 10 10 11 11 11 12 12 12 12 12 11 12 12 12 13 14 14 14 14 15 15 15 15 15
7 7 7 7 7 7 7 7 7 8 8 8 9 9 10 10 10 11 11 11 11 11 12 12 11 11 11 11 12 12 13 13 14 14 14 14 14 14
7 7 7 7 7 7 7 7 7 7 8 8 8 9 9 10 10 10 11 11 11 11 11 11 11 11 11 11 11 12 12 12 13 13 14 14 14 14
7 7 7 7 7 7 6 6 7 7 7 8 8 9 9 9 10 10 10 11 11 12 12 11 11 11 11 11 11 11 11 12 12 13 13 13 13 13
6 6 6 6 6 6 6 6 7 6 7 7 8 8 9 9 10 10 10 11 11 12 12 12 12 12 11 11 11 11 11 11 12 12 13 13 13 13
6 6 6 6 6 6 6 6 6 6 6 7 7 8 9 9 9 10 10 10 10 11 11 11 12 12 12 12 12 12 11 11 12 12 12 12 13 13
6 6 6 6 6 6 6 6 6 6 7 7 7 8 8 9 9 9 10 10 10 10 10 11 11 12 12 12 12 12 12 12 12 12 12 12 12 12
6 6 6 6 6 6 6 6 6 6 7 7 7 8 8 8 9 9 9 10 10 10 10 10 10 11 11 12 12 12 12 12 12 12 12 12 12 12
6 6 6 6 6 6 6 6 6 7 7 7 7 7 8 8 9 9 9 9 9 10 10 10 10 10 10 10 11 12 12 12 12 12 12 12 12 12
6 6 6 6 6 6 6 6 7 7 7 7 7 7 8 8 8 9 9 9 9 9 10 10 10 11 10 10 11 11 11 12 12 12 12 12 12 12
6 6 6 6 6 6 6 6 7 7 7 7 7 7 8 8 8 9 9 9 9 9 9 10 10 11 11 11 11 11 11 11 12 12 12 11 11 10
6 6 6 6 6 6 6 6 7 7 7 7 7 8 8 8 8 9 9 9 9 9 9 10 10 10 11 11 11 11 11 11 11 12 12 11 10 10
7 7 6 7 7 7 7 7 7 7 7 7 8 8 8 8 8 9 9 9 9 9 9 10 9 10 10 10 11 11 11 11 10 10 10 11 11 11
7 7 7 7 7 7 7 7 7 8 8 8 8 8 8 8 8 9 9 9 9 9 9 9 9 9 9 10 10 11 11 11 10 10 10 9 10 10
Wind_Speed
6 6 5 5 5 5 5 5 4 5 4 3 2 2 2 4 7 10 11 16 21 23 25 25 26 27 28 28 28 28 27 26 26 26 26 26 26 25
6 6 6 5 5 5 5 5 5 5 5 3 3 4 5 4 3 6 8 11 16 20 22 23 24 25 26 27 27 27 26 26 25 25 25 25 25 24
7 7 8 7 6 5 5 5 6 5 8 6 4 4 4 3 2 2 3 4 7 14 18 20 21 23 24 25 25 26 25 25 24 24 24 23 23 23
9 9 9 7 8 6 6 7 6 6 6 8 5 4 3 2 2 2 1 2 3 8 12 15 17 18 20 21 22 23 23 23 22 22 21 21 21 20
10 10 10 9 9 7 7 7 6 7 6 6 6 4 3 2 1 2 3 3 3 6 9 10 12 14 16 17 18 19 19 20 20 20 19 19 18 17
10 10 10 10 10 10 8 8 8 7 7 7 6 4 4 2 3 3 3 3 3 4 6 7 9 10 12 14 15 17 18 18 18 18 17 17 16 15
11 10 11 13 14 11 9 8 8 7 7 7 7 5 5 4 4 4 5 5 3 3 5 4 5 5 6 9 12 15 16 17 18 17 17 16 16 15
12 11 11 13 15 16 17 15 12 10 9 8 7 7 7 5 3 5 6 6 4 4 5 3 4 5 4 5 10 14 16 16 17 17 17 17 17 16
12 11 11 11 12 11 13 15 15 16 14 10 9 9 8 6 6 7 8 7 5 7 6 4 3 4 4 7 12 14 15 16 17 18 18 18 18 17
12 12 12 12 12 11 11 11 11 12 12 11 10 10 9 7 6 6 6 5 5 5 5 4 3 3 4 7 10 13 15 17 18 19 19 19 18 18
11 11 12 13 14 14 12 12 12 11 11 12 12 11 11 10 7 6 7 9 6 4 2 4 4 3 3 3 7 12 14 16 18 19 20 20 21 19
9 10 13 14 14 14 13 12 12 11 9 8 9 10 10 10 12 10 9 9 7 5 4 5 6 5 4 2 3 6 10 13 17 19 20 21 20 14
8 8 8 12 14 15 14 12 13 11 9 9 8 8 7 7 9 9 9 9 9 4 9 7 6 4 5 4 2 3 5 7 9 11 16 17 16 13
8 7 8 10 12 13 11 12 13 11 7 7 7 7 7 8 8 9 9 8 5 6 12 10 7 7 7 5 4 4 4 5 7 8 10 13 12 11
7 9 10 10 9 9 12 13 11 9 8 8 9 9 8 8 7 7 8 6 5 8 12 8 9 10 7 6 7 6 5 4 6 7 8 8 8 8
5 7 8 8 7 6 6 8 8 9 9 9 9 8 6 7 8 7 7 8 6 5 6 7 11 13 6 7 9 8 7 8 9 8 8 6 7 7
4 3 3 3 4 4 4 5 7 8 9 8 8 7 7 7 7 7 8 8 7 8 7 5 6 6 6 8 8 10 10 7 9 10 8 7 6 7
3 3 4 4 5 5 5 5 6 7 7 8 7 7 7 7 7 7 8 8 9 9 9 9 9 6 5 4 4 10 9 8 10 10 8 7 7 7
4 5 5 5 5 5 5 5 6 6 6 7 7 7 7 7 7 7 8 9 9 10 10 11 11 9 9 6 4 7 9 10 11 10 9 6 7 8
4 5 6 5 5 5 5 5 5 5 6 7 7 7 7 7 7 8 9 10 10 9 9 10 11 10 9 9 7 6 12 12 10 11 9 5 4 6
5 5 6 5 5 5 5 5 5 6 6 7 7 8 7 7 7 8 8 11 11 10 12 11 9 9 7 8 8 5 8 12 11 9 10 8 7 7
6 5 5 5 5 5 5 5 6 6 7 7 7 7 7 7 8 9 9 10 10 9 10 9 11 9 6 8 9 9 9 9 9 12 13 8 7 10
6 5 5 5 5 4 4 5 6 6 6 7 7 7 8 7 8 8 9 9 10 11 11 11 10 7 6 7 9 9 13 12 9 9 8 3 4 7
Wind_Direction
254 253 249 253 249 245 244 244 262 290 295 288 290 317 301 265 236 223 224 218 211 209 207 205 204 202 201 202 204 207 209 211 213 214 215 216 216 218
252 251 251 251 250 247 242 242 240 252 273 283 293 305 304 290 256 226 222 216 211 205 202 202 201 200 200 201 203 206 208 210 211 212 213 214 215 217
256 250 252 251 249 247 243 242 242 242 263 279 274 289 287 277 265 217 205 201 201 198 195 196 196 196 197 198 201 204 205 207 209 209 210 211 213 214
256 251 254 254 248 245 241 241 242 239 248 272 285 286 282 265 233 180 151 147 155 169 177 184 189 191 192 194 197 200 202 203 204 204 205 205 207 208
253 249 250 249 251 247 241 241 243 245 239 254 271 274 275 247 206 162 137 127 116 130 145 160 173 180 186 190 191 194 195 195 195 196 197 197 197 197
252 248 246 243 245 246 243 240 241 243 243 246 257 263 260 240 198 178 160 145 129 114 113 123 141 154 170 178 182 184 186 185 184 183 182 182 181 182
258 251 247 244 242 240 238 235 232 235 238 239 245 251 246 220 207 182 166 143 121 127 121 113 120 124 139 158 168 172 173 173 173 171 169 168 168 166
262 257 252 253 252 248 243 237 227 227 230 232 233 238 241 224 208 185 162 159 157 149 133 111 105 107 96 118 144 153 157 159 160 159 157 157 156 154
259 257 258 254 246 242 243 242 238 233 226 227 232 232 233 221 201 194 186 174 160 156 137 118 100 96 74 92 124 137 143 147 150 149 149 148 147 145
257 253 253 255 250 239 238 240 240 239 234 233 235 234 230 219 208 198 181 150 120 138 134 124 110 91 70 70 101 124 133 138 141 142 141 141 139 137
261 255 251 252 246 234 234 237 241 242 242 235 228 231 224 212 200 180 173 168 160 152 120 123 125 103 79 63 74 105 122 130 134 136 136 135 132 126
266 260 252 249 244 230 230 230 235 238 235 233 226 229 228 216 202 196 187 183 163 156 161 133 137 134 115 81 69 92 106 116 126 131 134 136 135 128
266 264 258 247 242 233 226 229 230 226 226 225 225 224 222 215 208 205 197 192 178 162 166 148 142 136 127 128 110 100 119 128 122 125 132 137 140 138
260 262 262 256 246 237 230 228 222 216 221 218 220 220 218 215 210 203 199 199 189 162 166 157 146 153 140 140 144 137 129 136 138 137 136 133 126 125
259 262 264 264 258 244 234 225 216 214 212 213 217 217 215 213 201 195 188 178 153 150 163 166 150 154 151 148 149 153 151 158 157 148 148 151 149 147
272 273 269 266 258 248 234 222 217 211 208 214 214 212 206 204 201 190 182 168 154 141 146 154 155 154 149 146 152 159 160 160 165 160 151 150 155 161
288 283 272 259 251 243 230 218 211 205 208 212 209 205 201 202 200 189 178 171 170 161 151 137 123 112 118 143 152 158 154 151 161 160 157 159 170 176
264 260 262 256 247 241 230 220 210 206 204 203 205 205 200 196 195 187 181 178 173 164 157 153 143 125 103 62 114 156 157 153 158 163 161 163 173 181
247 259 261 259 252 242 233 224 220 209 199 200 202 201 198 192 189 189 185 181 176 168 163 163 165 161 162 165 159 164 160 154 156 165 173 169 174 175
246 259 264 261 253 244 233 227 222 211 201 200 202 200 194 191 188 187 186 180 173 167 165 172 178 179 178 165 153 165 167 159 161 165 166 152 125 130
264 261 263 259 253 246 237 226 217 211 207 201 202 198 193 190 192 189 185 176 170 170 174 180 175 147 114 117 120 135 164 168 160 159 159 155 155 163
267 266 267 262 254 241 232 223 213 209 205 204 201 197 193 192 193 190 183 177 176 175 172 161 152 153 155 161 154 146 148 155 149 152 159 153 167 181
267 265 265 263 256 245 231 219 209 205 201 198 195 191 189 192 192 187 183 177 172 167 159 157 159 165 164 155 148 146 151 155 155 157 166 155 137 148
Height
1478 1478 1478 1478 1479 1479 1478 1478 1478 1475 1473 1473 1474 1475 1476 1478 1480 1483 1486 1490 1495 1499 1504 1509 1514 1520 1525 1529 1534 1539 1544 1549 1553 1557 1561 1565 1569 1572
1472 1472 1472 1473 1473 1473 1474 1474 1474 1473 1471 1469 1470 1471 1472 1474 1475 1478 1481 1484 1489 1493 1498 1503 1508 1513 1518 1523 1528 1534 1538 1543 1547 1552 1556 1560 1563 1567
1467 1466 1466 1467 1467 1468 1468 1468 1469 1469 1467 1465 1466 1467 1468 1470 1471 1473 1476 1480 1483 1488 1493 1498 1503 1508 1513 1518 1523 1528 1532 1537 1541 1546 1550 1554 1558 1562
1460 1460 1460 1461 1461 1462 1462 1462 1463 1463 1463 1462 1462 1463 1464 1466 1467 1469 1472 1475 1479 1483 1488 1493 1498 1503 1508 1512 1517 1522 1527 1531 1536 1540 1544 1549 1553 1556
1454 1453 1454 1454 1454 1455 1456 1456 1457 1458 1458 1458 1458 1459 1460 1462 1463 1465 1468 1471 1475 1479 1484 1489 1493 1498 1503 1508 1512 1516 1521 1526 1530 1535 1539 1543 1547 1551
1447 1447 1447 1447 1448 1449 1449 1450 1451 1452 1453 1453 1454 1455 1456 1458 1460 1461 1464 1468 1471 1476 1480 1484 1489 1493 1498 1502 1507 1511 1516 1520 1525 1530 1534 1538 1542 1546
1440 1440 1440 1440 1440 1442 1443 1444 1445 1446 1447 1448 1449 1450 1452 1454 1456 1458 1461 1464 1468 1472 1476 1480 1484 1488 1493 1497 1502 1506 1511 1515 1520 1525 1529 1533 1537 1541
1432 1432 1433 1433 1434 1435 1436 1437 1439 1440 1441 1443 1444 1445 1447 1449 1452 1454 1457 1461 1464 1468 1472 1476 1480 1484 1488 1493 1497 1502 1506 1511 1516 1520 1525 1529 1533 1536
1425 1425 1425 1425 1426 1427 1428 1429 1431 1433 1435 1437 1438 1440 1442 1444 1447 1449 1452 1456 1460 1464 1469 1473 1477 1481 1485 1489 1494 1498 1502 1507 1512 1516 1520 1525 1529 1532
1418 1418 1417 1417 1418 1419 1420 1421 1423 1426 1428 1430 1432 1435 1438 1440 1442 1445 1448 1452 1456 1461 1466 1470 1475 1479 1483 1487 1491 1495 1499 1504 1508 1513 1517 1521 1525 1529
1411 1410 1410 1409 1410 1412 1413 1413 1415 1418 1421 1424 1426 1429 1432 1435 1437 1441 1443 1447 1451 1456 1460 1466 1471 1476 1480 1484 1488 1492 1497 1501 1506 1510 1514 1518 1522 1526
1404 1403 1402 1402 1403 1404 1405 1406 1407 1410 1414 1417 1420 1423 1425 1429 1432 1435 1438 1442 1446 1450 1455 1461 1467 1472 1478 1482 1486 1490 1494 1498 1503 1507 1512 1516 1520 1524
1397 1396 1396 1396 1396 1397 1398 1399 1401 1404 1407 1410 1413 1416 1419 1422 1426 1429 1433 1437 1441 1445 1450 1456 1462 1467 1472 1477 1482 1487 1492 1496 1500 1504 1509 1513 1518 1521
1391 1390 1390 1390 1390 1390 1391 1393 1395 1398 1401 1403 1406 1409 1412 1416 1420 1424 1428 1432 1436 1441 1446 1451 1456 1462 1468 1473 1478 1483 1489 1493 1498 1502 1506 1511 1515 1518
1387 1386 1385 1385 1384 1385 1386 1387 1390 1392 1394 1397 1400 1403 1407 1411 1415 1419 1423 1427 1431 1436 1441 1447 1453 1459 1465 1469 1473 1479 1484 1489 1494 1499 1504 1508 1512 1516
1382 1381 1380 1380 1380 1380 1380 1381 1383 1386 1389 1392 1395 1399 1403 1406 1410 1413 1417 1421 1426 1432 1437 1443 1449 1455 1461 1466 1471 1475 1481 1485 1491 1496 1501 1506 1510 1514
1379 1377 1376 1376 1375 1375 1376 1377 1379 1381 1384 1387 1391 1394 1397 1401 1404 1408 1412 1417 1421 1426 1432 1438 1444 1451 1457 1463 1468 1472 1477 1482 1487 1493 1498 1503 1507 1511
1375 1374 1373 1372 1372 1372 1372 1373 1375 1377 1380 1383 1386 1389 1393 1396 1400 1404 1408 1412 1417 1422 1427 1433 1438 1445 1452 1458 1464 1468 1473 1479 1484 1490 1495 1500 1504 1508
1372 1371 1370 1369 1369 1368 1369 1370 1372 1374 1376 1379 1382 1386 1389 1393 1396 1400 1403 1408 1413 1418 1423 1429 1434 1440 1445 1451 1458 1464 1469 1475 1480 1486 1491 1497 1501 1505
1369 1368 1367 1367 1366 1365 1366 1367 1369 1371 1373 1376 1379 1382 1386 1389 1393 1396 1399 1404 1409 1414 1419 1424 1429 1435 1441 1446 1453 1459 1466 1471 1476 1482 1487 1493 1498 1503
1367 1365 1364 1364 1363 1363 1364 1365 1366 1368 1370 1373 1376 1379 1382 1386 1389 1392 1396 1400 1405 1410 1414 1420 1426 1433 1439 1445 1450 1455 1462 1468 1474 1479 1484 1489 1494 1497
1364 1363 1362 1361 1361 1361 1361 1362 1364 1366 1368 1370 1373 1376 1379 1382 1386 1389 1392 1396 1401 1406 1411 1417 1422 1428 1434 1440 1445 1451 1457 1463 1470 1476 1483 1487 1490 1493
1362 1361 1360 1359 1359 1359 1359 1360 1362 1363 1366 1368 1370 1373 1376 1379 1382 1386 1389 1394 1398 1403 1407 1413 1418 1425 1430 1436 1442 1448 1454 1459 1465 1471 1477 1483 1488 1493